Champaign, IL

3:14 PM CDT on May 23, 2017 (GMT -0500)
Univ Of Illinois-Willard

Weather History for KCMI - December, 2012

Change the Weather History Date:

Saturday, December 8, 2012

  Actual Average Record
Temperature  
Mean Temperature 43 °F 31 °F  
Max Temperature 46 °F 39 °F 52 °F (2015)
Min Temperature 39 °F 23 °F -1 °F (2010)
Degree Days  
Heating Degree Days 22 34  
Month to date heating degree days 131 260  
Since 1 July heating degree days 1324 1424  
Cooling Degree Days 0 0  
Month to date cooling degree days 0 0  
Year to date cooling degree days 1290 945  
Moisture  
Dew Point 40 °F    
Average Humidity 88    
Maximum Humidity 100    
Minimum Humidity 76    
Precipitation  
Precipitation 0.01 in 0.08 in 0.24 in (2005)
Month to date precipitation 0.59 0.69  
Year to date precipitation 27.12 37.89  
Sea Level Pressure  
Sea Level Pressure 29.96 in    
Wind  
Wind Speed 7 mph (North)    
Max Wind Speed 16 mph    
Max Gust Speed 21 mph    
Visibility 5 miles    
Events Fog , Rain    
T = Trace of Precipitation, MM = Missing Value Source: NWS Daily Summary

Daily Weather History Graph

Daily Weather History Graph

Search for Another Location

Airport or City:

Trip Planner

Search our weather history database for the weather conditions in past years. The results will help you decide how hot, cold, wet, or windy it might be!

Date:

Astronomy

Dec. 08, 2012 Rise Set
Actual Time 7:02 AM CST 4:27 PM CST
Civil Twilight 6:32 AM CST 4:57 PM CST
Nautical Twilight 5:58 AM CST 5:31 PM CST
Astronomical Twilight 5:25 AM CST 6:04 PM CST
Moon 1:27 AM CST (12/8) 12:57 PM CST (12/8)
Length of Visible Light 10h 25m
Length of Day
9h 24m
Waning Crescent, 28% of the Moon is Illuminated
Dec 8
Waning Crescent
Dec 13
New
Dec 19
First Quarter
Dec 28
Full
Jan 4
Last Quarter

Hourly Weather History & Observations

Time (CST) Temp. Windchill Dew Point Humidity Pressure Visibility Wind Dir Wind Speed Gust Speed Precip Events Conditions
12:53 AM 45.0 °F - 44.1 °F 97% 29.86 in 0.8 mi Calm Calm - 0.01 in Rain Light Rain
1:53 AM 45.0 °F 43.5 °F 45.0 °F 100% 29.87 in 0.2 mi NW 3.5 mph - 0.00 in Fog Fog
2:01 AM 44.6 °F - 44.6 °F 100% 29.85 in 0.2 mi Calm Calm - N/A Fog Fog
2:53 AM 45.0 °F 43.5 °F 45.0 °F 100% 29.86 in 0.2 mi West 3.5 mph - N/A Fog Fog
3:53 AM 45.0 °F - 45.0 °F 100% 29.85 in 0.2 mi Calm Calm - N/A Fog Fog
4:38 AM 44.6 °F 38.4 °F 44.6 °F 100% 29.87 in 0.2 mi NW 12.7 mph - 0.00 in Fog , Rain Light Rain
4:47 AM 44.6 °F 40.7 °F 44.6 °F 100% 29.87 in 0.5 mi NNW 6.9 mph - 0.00 in Fog , Rain Light Rain
5:02 AM 44.6 °F 39.7 °F 42.8 °F 93% 29.87 in 0.2 mi NNW 9.2 mph - 0.00 in Fog Fog
5:53 AM 43.0 °F 38.8 °F 43.0 °F 100% 29.89 in 0.2 mi NNW 6.9 mph - 0.00 in Fog Fog
6:18 AM 42.8 °F 38.0 °F 42.8 °F 100% 29.89 in 0.2 mi NNW 8.1 mph - N/A Fog Fog
6:53 AM 43.0 °F 38.2 °F 42.1 °F 97% 29.92 in 0.2 mi NNW 8.1 mph - N/A   Overcast
7:27 AM 42.8 °F 37.5 °F 41.0 °F 93% 29.93 in 0.8 mi NNW 9.2 mph - N/A   Overcast
7:53 AM 42.1 °F 36.1 °F 41.0 °F 96% 29.94 in 0.8 mi NNW 10.4 mph - N/A   Overcast
8:03 AM 42.8 °F 38.0 °F 41.0 °F 93% 29.92 in 1.0 mi North 8.1 mph - N/A   Overcast
8:53 AM 41.0 °F 34.3 °F 39.9 °F 96% 29.96 in 1.0 mi NNW 11.5 mph - N/A   Overcast
9:22 AM 41.0 °F 36.4 °F 39.2 °F 93% 29.97 in 3.0 mi NNW 6.9 mph - N/A   Overcast
9:53 AM 41.0 °F 35.8 °F 39.9 °F 96% 29.99 in 4.0 mi North 8.1 mph - N/A   Overcast
10:35 AM 42.8 °F 37.5 °F 39.2 °F 87% 29.98 in 4.0 mi North 9.2 mph - N/A   Overcast
10:53 AM 42.1 °F 37.1 °F 39.9 °F 92% 29.98 in 4.0 mi NNW 8.1 mph - N/A   Overcast
11:53 AM 42.1 °F 37.1 °F 39.9 °F 92% 29.98 in 5.0 mi North 8.1 mph - N/A   Overcast
12:18 PM 42.8 °F 38.0 °F 39.2 °F 87% 29.98 in 7.0 mi North 8.1 mph - N/A   Overcast
12:53 PM 43.0 °F 41.3 °F 39.0 °F 86% 29.99 in 10.0 mi NNW 3.5 mph - N/A   Overcast
1:16 PM 44.6 °F 42.2 °F 39.2 °F 81% 29.98 in 10.0 mi NE 4.6 mph - N/A   Overcast
1:53 PM 43.0 °F 38.8 °F 37.9 °F 82% 30.00 in 10.0 mi NNE 6.9 mph - N/A   Overcast
2:53 PM 44.1 °F 40.8 °F 37.9 °F 79% 30.00 in 10.0 mi NNE 5.8 mph - N/A   Overcast
3:53 PM 43.0 °F 38.8 °F 37.9 °F 82% 30.02 in 10.0 mi NNE 6.9 mph - N/A   Overcast
4:53 PM 41.0 °F 38.0 °F 36.0 °F 82% 30.03 in 10.0 mi NNE 4.6 mph - N/A   Scattered Clouds
5:53 PM 41.0 °F 36.4 °F 36.0 °F 82% 30.04 in 10.0 mi NE 6.9 mph - N/A   Overcast
6:36 PM 39.2 °F 34.2 °F 35.6 °F 87% 30.03 in 10.0 mi NE 6.9 mph - N/A   Mostly Cloudy
6:53 PM 41.0 °F 36.4 °F 37.0 °F 86% 30.05 in 10.0 mi NE 6.9 mph - N/A   Mostly Cloudy
7:00 PM 41.0 °F 36.4 °F 37.4 °F 87% 30.03 in 10.0 mi NE 6.9 mph - N/A   Scattered Clouds
7:53 PM 39.9 °F 34.5 °F 36.0 °F 86% 30.06 in 10.0 mi NE 8.1 mph - N/A   Partly Cloudy
8:53 PM 39.9 °F 33.9 °F 37.0 °F 89% 30.05 in 10.0 mi NE 9.2 mph - N/A   Overcast
9:53 PM 39.0 °F 31.4 °F 36.0 °F 89% 30.04 in 10.0 mi NE 12.7 mph - N/A   Overcast
10:53 PM 39.0 °F 31.0 °F 36.0 °F 89% 30.04 in 8.0 mi ENE 13.8 mph - N/A   Overcast
11:53 PM 39.0 °F 31.0 °F 36.0 °F 89% 30.02 in 6.0 mi ENE 13.8 mph - N/A   Overcast